QPF
0.00 0.00 0.00 0.00 0.00 0.00 0.00 0.00 0.00 0.00 0.00 0.00 0.00 0.00 0.00 0.00 0.00 0.00 0.00 0.00 0.00 0.00 0.00 0.00 0.00 0.00 0.00 0.00 0.00 0.00 0.00 0.00 0.00 0.00 0.00 0.00 0.00 0.00 0.00 0.00 0.00 0.00 0.00 0.00 0.00 0.00 0.00 0.00 0.00 0.00 0.00 0.00 0.00 0.00 0.00 0.00 0.00 0.00 0.00 0.00 0.00 0.00 0.00 0.00 0.00 0.00 0.00 0.00 0.00
0.00 0.00 0.00 0.00 0.00 0.00 0.00 0.00 0.00 0.00 0.00 0.00 0.00 0.00 0.00 0.00 0.00 0.00 0.00 0.00 0.00 0.00 0.00 0.00 0.00 0.00 0.00 0.00 0.00 0.00 0.00 0.00 0.00 0.00 0.00 0.00 0.00 0.00 0.00 0.00 0.00 0.00 0.00 0.00 0.00 0.00 0.00 0.00 0.00 0.00 0.00 0.00 0.00 0.00 0.00 0.00 0.00 0.00 0.00 0.00 0.00 0.00 0.00 0.00 0.00 0.00 0.00 0.00 0.00
0.00 0.00 0.00 0.00 0.00 0.00 0.00 0.00 0.00 0.00 0.00 0.00 0.00 0.00 0.00 0.00 0.00 0.00 0.00 0.00 0.00 0.00 0.00 0.00 0.00 0.00 0.00 0.00 0.00 0.00 0.00 0.00 0.00 0.00 0.00 0.00 0.00 0.00 0.00 0.00 0.00 0.00 0.00 0.00 0.00 0.00 0.00 0.00 0.00 0.00 0.00 0.00 0.00 0.00 0.00 0.00 0.00 0.00 0.00 0.00 0.00 0.00 0.00 0.00 0.00 0.00 0.00 0.00 0.00
0.00 0.00 0.00 0.00 0.00 0.00 0.00 0.00 0.00 0.00 0.00 0.00 0.00 0.00 0.00 0.00 0.00 0.00 0.00 0.00 0.00 0.00 0.00 0.00 0.00 0.00 0.00 0.00 0.00 0.00 0.00 0.00 0.00 0.00 0.00 0.00 0.00 0.00 0.00 0.00 0.00 0.00 0.00 0.00 0.00 0.00 0.00 0.00 0.00 0.00 0.00 0.00 0.00 0.00 0.00 0.00 0.00 0.00 0.00 0.00 0.00 0.00 0.00 0.00 0.00 0.00 0.00 0.00 0.00
0.00 0.00 0.00 0.00 0.00 0.00 0.00 0.00 0.00 0.00 0.00 0.00 0.00 0.00 0.00 0.00 0.00 0.00 0.00 0.00 0.00 0.00 0.00 0.00 0.00 0.00 0.00 0.00 0.00 0.00 0.00 0.00 0.00 0.00 0.00 0.00 0.00 0.00 0.00 0.00 0.00 0.00 0.00 0.00 0.00 0.00 0.00 0.00 0.00 0.00 0.00 0.00 0.00 0.00 0.00 0.00 0.00 0.00 0.00 0.00 0.00 0.00 0.00 0.00 0.00 0.00 0.00 0.00 0.00
0.00 0.00 0.00 0.00 0.00 0.00 0.00 0.00 0.00 0.00 0.00 0.00 0.00 0.00 0.00 0.00 0.00 0.00 0.00 0.00 0.00 0.00 0.00 0.00 0.00 0.00 0.00 0.00 0.00 0.00 0.00 0.00 0.00 0.00 0.00 0.00 0.00 0.00 0.00 0.00 0.00 0.00 0.00 0.00 0.00 0.00 0.00 0.00 0.00 0.00 0.00 0.00 0.00 0.00 0.00 0.00 0.00 0.00 0.00 0.00 0.00 0.00 0.00 0.00 0.00 0.00 0.00 0.00 0.00
0.00 0.00 0.00 0.00 0.00 0.00 0.00 0.00 0.00 0.00 0.00 0.00 0.00 0.00 0.00 0.00 0.00 0.00 0.00 0.00 0.00 0.00 0.00 0.00 0.00 0.00 0.00 0.00 0.00 0.00 0.00 0.00 0.00 0.00 0.00 0.00 0.00 0.00 0.00 0.00 0.00 0.00 0.00 0.00 0.00 0.00 0.00 0.00 0.00 0.00 0.00 0.00 0.00 0.00 0.00 0.00 0.00 0.00 0.00 0.00 0.00 0.00 0.00 0.00 0.00 0.00 0.00 0.00 0.00
0.00 0.00 0.00 0.00 0.00 0.00 0.00 0.00 0.00 0.00 0.00 0.00 0.00 0.00 0.00 0.00 0.00 0.00 0.00 0.00 0.00 0.00 0.00 0.00 0.00 0.00 0.00 0.00 0.00 0.00 0.00 0.00 0.00 0.00 0.00 0.00 0.00 0.00 0.00 0.00 0.00 0.00 0.00 0.00 0.00 0.00 0.00 0.00 0.00 0.00 0.00 0.00 0.00 0.00 0.00 0.00 0.00 0.00 0.00 0.00 0.00 0.00 0.00 0.00 0.00 0.00 0.00 0.00 0.00
0.00 0.00 0.00 0.00 0.00 0.00 0.00 0.00 0.00 0.00 0.00 0.00 0.00 0.00 0.00 0.00 0.00 0.00 0.00 0.00 0.00 0.00 0.00 0.00 0.00 0.00 0.00 0.00 0.00 0.00 0.00 0.00 0.00 0.00 0.00 0.00 0.00 0.00 0.00 0.00 0.00 0.00 0.00 0.00 0.00 0.00 0.00 0.00 0.00 0.00 0.00 0.00 0.00 0.00 0.00 0.00 0.00 0.00 0.00 0.00 0.00 0.00 0.00 0.00 0.00 0.00 0.00 0.00 0.00
0.00 0.00 0.00 0.00 0.00 0.00 0.00 0.00 0.00 0.00 0.00 0.00 0.00 0.00 0.00 0.00 0.00 0.00 0.00 0.00 0.00 0.00 0.00 0.00 0.00 0.00 0.00 0.00 0.00 0.00 0.00 0.00 0.00 0.00 0.00 0.00 0.00 0.00 0.00 0.00 0.00 0.00 0.00 0.00 0.00 0.00 0.00 0.00 0.00 0.00 0.00 0.00 0.00 0.00 0.00 0.00 0.00 0.00 0.00 0.00 0.00 0.00 0.00 0.00 0.00 0.00 0.00 0.00 0.00
0.00 0.00 0.00 0.00 0.00 0.00 0.00 0.00 0.00 0.00 0.00 0.00 0.00 0.00 0.00 0.00 0.00 0.00 0.00 0.00 0.00 0.00 0.00 0.00 0.00 0.00 0.00 0.00 0.00 0.00 0.00 0.00 0.00 0.00 0.00 0.00 0.00 0.00 0.00 0.00 0.00 0.00 0.00 0.00 0.00 0.00 0.00 0.00 0.00 0.00 0.00 0.00 0.00 0.00 0.00 0.00 0.00 0.00 0.00 0.00 0.00 0.00 0.00 0.00 0.00 0.00 0.00 0.00 0.00
0.00 0.00 0.00 0.00 0.00 0.00 0.00 0.00 0.00 0.00 0.00 0.00 0.00 0.00 0.00 0.00 0.00 0.00 0.00 0.00 0.00 0.00 0.00 0.00 0.00 0.00 0.00 0.00 0.00 0.00 0.00 0.00 0.00 0.00 0.00 0.00 0.00 0.00 0.00 0.00 0.00 0.00 0.00 0.00 0.00 0.00 0.00 0.00 0.00 0.00 0.00 0.00 0.00 0.00 0.00 0.00 0.00 0.00 0.00 0.00 0.00 0.00 0.00 0.00 0.00 0.00 0.00 0.00 0.00
0.00 0.00 0.00 0.00 0.00 0.00 0.00 0.00 0.00 0.00 0.00 0.00 0.00 0.00 0.00 0.00 0.00 0.00 0.00 0.00 0.00 0.00 0.00 0.00 0.00 0.00 0.00 0.00 0.00 0.00 0.00 0.00 0.00 0.00 0.00 0.00 0.00 0.00 0.00 0.00 0.00 0.00 0.00 0.00 0.00 0.00 0.00 0.00 0.00 0.00 0.00 0.00 0.00 0.00 0.00 0.00 0.00 0.00 0.00 0.00 0.00 0.00 0.00 0.00 0.00 0.00 0.00 0.00 0.00
0.00 0.00 0.00 0.00 0.00 0.00 0.00 0.00 0.00 0.00 0.00 0.00 0.00 0.00 0.00 0.00 0.00 0.00 0.00 0.00 0.00 0.00 0.00 0.00 0.00 0.00 0.00 0.00 0.00 0.00 0.00 0.00 0.00 0.00 0.00 0.00 0.00 0.00 0.00 0.00 0.00 0.00 0.00 0.00 0.00 0.00 0.00 0.00 0.00 0.00 0.00 0.00 0.00 0.00 0.00 0.00 0.00 0.00 0.00 0.00 0.00 0.00 0.00 0.00 0.00 0.00 0.00 0.00 0.00
0.00 0.00 0.00 0.00 0.00 0.00 0.00 0.00 0.00 0.00 0.00 0.00 0.00 0.00 0.00 0.00 0.00 0.00 0.00 0.00 0.00 0.00 0.00 0.00 0.00 0.00 0.00 0.00 0.00 0.00 0.00 0.00 0.00 0.00 0.00 0.00 0.00 0.00 0.00 0.00 0.00 0.00 0.00 0.00 0.00 0.00 0.00 0.00 0.00 0.00 0.00 0.00 0.00 0.00 0.00 0.00 0.00 0.00 0.00 0.00 0.00 0.00 0.00 0.00 0.00 0.00 0.00 0.00 0.00
0.00 0.00 0.00 0.00 0.00 0.00 0.00 0.00 0.00 0.00 0.00 0.00 0.00 0.00 0.00 0.00 0.00 0.00 0.00 0.00 0.00 0.00 0.00 0.00 0.00 0.00 0.00 0.00 0.00 0.00 0.00 0.00 0.00 0.00 0.00 0.00 0.00 0.00 0.00 0.00 0.00 0.00 0.00 0.00 0.00 0.00 0.00 0.00 0.00 0.00 0.00 0.00 0.00 0.00 0.00 0.00 0.00 0.00 0.00 0.00 0.00 0.00 0.00 0.00 0.00 0.00 0.00 0.00 0.00
0.00 0.00 0.00 0.00 0.00 0.00 0.00 0.00 0.00 0.00 0.00 0.00 0.00 0.00 0.00 0.00 0.00 0.00 0.00 0.00 0.00 0.00 0.00 0.00 0.00 0.00 0.00 0.00 0.00 0.00 0.00 0.00 0.00 0.00 0.00 0.00 0.00 0.00 0.00 0.00 0.00 0.00 0.00 0.00 0.00 0.00 0.00 0.00 0.00 0.00 0.00 0.00 0.00 0.00 0.00 0.00 0.00 0.00 0.00 0.00 0.00 0.00 0.00 0.00 0.00 0.00 0.00 0.00 0.00
0.00 0.00 0.00 0.00 0.00 0.00 0.00 0.00 0.00 0.00 0.00 0.00 0.00 0.00 0.00 0.00 0.00 0.00 0.00 0.00 0.00 0.00 0.00 0.00 0.00 0.00 0.00 0.00 0.00 0.00 0.00 0.00 0.00 0.00 0.00 0.00 0.00 0.00 0.00 0.00 0.00 0.00 0.00 0.00 0.00 0.00 0.00 0.00 0.00 0.00 0.00 0.00 0.00 0.00 0.00 0.00 0.00 0.00 0.00 0.00 0.00 0.00 0.00 0.00 0.00 0.00 0.00 0.00 0.00
0.00 0.00 0.00 0.00 0.00 0.00 0.00 0.00 0.00 0.00 0.00 0.00 0.00 0.00 0.00 0.00 0.00 0.00 0.00 0.00 0.00 0.00 0.00 0.00 0.00 0.00 0.00 0.00 0.00 0.00 0.00 0.00 0.00 0.00 0.00 0.00 0.00 0.00 0.00 0.00 0.00 0.00 0.00 0.00 0.00 0.00 0.00 0.00 0.00 0.00 0.00 0.00 0.00 0.00 0.00 0.00 0.00 0.00 0.00 0.00 0.00 0.00 0.00 0.00 0.00 0.00 0.00 0.00 0.00
0.00 0.00 0.00 0.00 0.00 0.00 0.00 0.00 0.00 0.00 0.00 0.00 0.00 0.00 0.00 0.00 0.00 0.00 0.00 0.00 0.00 0.00 0.00 0.00 0.00 0.00 0.00 0.00 0.00 0.00 0.00 0.00 0.00 0.00 0.00 0.00 0.00 0.00 0.00 0.00 0.00 0.00 0.00 0.00 0.00 0.00 0.00 0.00 0.00 0.00 0.00 0.00 0.00 0.00 0.00 0.00 0.00 0.00 0.00 0.00 0.00 0.00 0.00 0.00 0.00 0.00 0.00 0.00 0.00
0.00 0.00 0.00 0.00 0.00 0.00 0.00 0.00 0.00 0.00 0.00 0.00 0.00 0.00 0.00 0.00 0.00 0.00 0.00 0.00 0.00 0.00 0.00 0.00 0.00 0.00 0.00 0.00 0.00 0.00 0.00 0.00 0.00 0.00 0.00 0.00 0.00 0.00 0.00 0.00 0.00 0.00 0.00 0.00 0.00 0.00 0.00 0.00 0.00 0.00 0.00 0.00 0.00 0.00 0.00 0.00 0.00 0.00 0.00 0.00 0.00 0.00 0.00 0.00 0.00 0.00 0.00 0.00 0.00
0.00 0.00 0.00 0.00 0.00 0.00 0.00 0.00 0.00 0.00 0.00 0.00 0.00 0.00 0.00 0.00 0.00 0.00 0.00 0.00 0.00 0.00 0.00 0.00 0.00 0.00 0.00 0.00 0.00 0.00 0.00 0.00 0.00 0.00 0.00 0.00 0.00 0.00 0.00 0.00 0.00 0.00 0.00 0.00 0.00 0.00 0.00 0.00 0.00 0.00 0.00 0.00 0.00 0.00 0.00 0.00 0.00 0.00 0.00 0.00 0.00 0.00 0.00 0.00 0.00 0.00 0.00 0.00 0.00
0.00 0.00 0.00 0.00 0.00 0.00 0.00 0.00 0.00 0.00 0.00 0.00 0.00 0.00 0.00 0.00 0.00 0.00 0.00 0.00 0.00 0.00 0.00 0.00 0.00 0.00 0.00 0.00 0.00 0.00 0.00 0.00 0.00 0.00 0.00 0.00 0.00 0.00 0.00 0.00 0.00 0.00 0.00 0.00 0.00 0.00 0.00 0.00 0.00 0.00 0.00 0.00 0.00 0.00 0.00 0.00 0.00 0.00 0.00 0.00 0.00 0.00 0.00 0.00 0.00 0.00 0.00 0.00 0.00
0.00 0.00 0.00 0.00 0.00 0.00 0.00 0.00 0.00 0.00 0.00 0.00 0.00 0.00 0.00 0.00 0.00 0.00 0.00 0.00 0.00 0.00 0.00 0.00 0.00 0.00 0.00 0.00 0.00 0.00 0.00 0.00 0.00 0.00 0.00 0.00 0.00 0.00 0.00 0.00 0.00 0.00 0.00 0.00 0.00 0.00 0.00 0.00 0.00 0.00 0.00 0.00 0.00 0.00 0.00 0.00 0.00 0.00 0.00 0.00 0.00 0.00 0.00 0.00 0.00 0.00 0.00 0.00 0.00
0.00 0.00 0.00 0.00 0.00 0.00 0.00 0.00 0.00 0.00 0.00 0.00 0.00 0.00 0.00 0.00 0.00 0.00 0.00 0.00 0.00 0.00 0.00 0.00 0.00 0.00 0.00 0.00 0.00 0.00 0.00 0.00 0.00 0.00 0.00 0.00 0.00 0.00 0.00 0.00 0.00 0.00 0.00 0.00 0.00 0.00 0.00 0.00 0.00 0.00 0.01 0.01 0.01 0.01 0.01 0.00 0.00 0.00 0.00 0.00 0.00 0.01 0.01 0.01 0.01 0.00 0.00 0.00 0.00
0.00 0.00 0.00 0.00 0.00 0.00 0.00 0.00 0.00 0.00 0.00 0.00 0.00 0.00 0.00 0.00 0.00 0.00 0.00 0.00 0.00 0.00 0.00 0.00 0.00 0.00 0.00 0.00 0.00 0.00 0.00 0.00 0.00 0.00 0.00 0.00 0.00 0.00 0.00 0.00 0.00 0.00 0.00 0.00 0.00 0.00 0.00 0.00 0.00 0.01 0.01 0.01 0.01 0.01 0.01 0.01 0.01 0.01 0.01 0.01 0.01 0.01 0.01 0.01 0.01 0.01 0.01 0.00 0.00
0.00 0.00 0.00 0.00 0.00 0.00 0.00 0.00 0.00 0.00 0.00 0.00 0.00 0.00 0.00 0.00 0.00 0.00 0.00 0.00 0.00 0.00 0.00 0.00 0.00 0.00 0.00 0.00 0.00 0.00 0.00 0.00 0.00 0.00 0.00 0.00 0.00 0.00 0.00 0.00 0.00 0.00 0.00 0.00 0.00 0.00 0.00 0.00 0.01 0.01 0.01 0.02 0.02 0.02 0.02 0.02 0.02 0.02 0.01 0.02 0.02 0.02 0.02 0.02 0.01 0.01 0.01 0.01 0.00
0.00 0.00 0.00 0.00 0.00 0.00 0.00 0.00 0.00 0.00 0.00 0.00 0.00 0.00 0.00 0.00 0.00 0.00 0.00 0.00 0.00 0.00 0.00 0.00 0.00 0.00 0.00 0.00 0.00 0.00 0.00 0.00 0.00 0.00 0.00 0.00 0.00 0.00 0.00 0.00 0.00 0.00 0.00 0.00 0.00 0.01 0.01 0.01 0.01 0.02 0.02 0.02 0.02 0.02 0.02 0.02 0.02 0.02 0.02 0.02 0.02 0.02 0.02 0.02 0.02 0.01 0.01 0.01 0.01
0.00 0.00 0.00 0.00 0.00 0.00 0.00 0.00 0.00 0.00 0.00 0.00 0.00 0.00 0.00 0.00 0.00 0.00 0.00 0.00 0.00 0.00 0.00 0.00 0.00 0.00 0.00 0.00 0.00 0.00 0.00 0.00 0.00 0.00 0.00 0.00 0.00 0.00 0.00 0.00 0.00 0.00 0.00 0.01 0.01 0.01 0.01 0.02 0.02 0.02 0.03 0.03 0.04 0.04 0.03 0.03 0.03 0.03 0.03 0.03 0.02 0.02 0.02 0.02 0.02 0.02 0.01 0.02 0.01
0.00 0.00 0.00 0.00 0.00 0.00 0.00 0.00 0.00 0.00 0.00 0.00 0.00 0.00 0.00 0.00 0.00 0.00 0.00 0.00 0.00 0.00 0.00 0.00 0.00 0.00 0.00 0.00 0.00 0.00 0.00 0.00 0.00 0.00 0.00 0.00 0.00 0.00 0.00 0.00 0.00 0.00 0.00 0.00 0.01 0.02 0.02 0.03 0.03 0.04 0.04 0.04 0.05 0.05 0.05 0.04 0.03 0.03 0.03 0.04 0.03 0.03 0.03 0.02 0.02 0.02 0.01 0.01 0.01
0.00 0.00 0.00 0.00 0.00 0.00 0.00 0.00 0.00 0.00 0.00 0.00 0.00 0.00 0.00 0.00 0.00 0.00 0.00 0.00 0.00 0.00 0.00 0.00 0.00 0.00 0.00 0.00 0.00 0.00 0.00 0.00 0.00 0.00 0.00 0.00 0.00 0.00 0.00 0.00 0.00 0.01 0.01 0.01 0.01 0.02 0.03 0.04 0.05 0.05 0.05 0.05 0.06 0.06 0.05 0.04 0.04 0.03 0.03 0.03 0.03 0.03 0.03 0.04 0.03 0.03 0.02 0.02 0.02
0.00 0.00 0.00 0.00 0.00 0.00 0.00 0.00 0.00 0.00 0.00 0.00 0.00 0.00 0.00 0.00 0.00 0.00 0.00 0.00 0.00 0.00 0.00 0.00 0.00 0.00 0.00 0.00 0.00 0.00 0.00 0.00 0.00 0.00 0.00 0.00 0.00 0.00 0.00 0.01 0.01 0.01 0.01 0.01 0.02 0.03 0.03 0.05 0.05 0.05 0.05 0.06 0.07 0.07 0.06 0.04 0.03 0.03 0.02 0.02 0.02 0.02 0.03 0.03 0.04 0.04 0.04 0.03 0.04
0.00 0.00 0.00 0.00 0.00 0.00 0.00 0.00 0.00 0.00 0.00 0.00 0.00 0.00 0.00 0.00 0.00 0.00 0.00 0.00 0.00 0.00 0.00 0.00 0.00 0.00 0.00 0.00 0.00 0.00 0.00 0.00 0.00 0.00 0.00 0.00 0.00 0.00 0.01 0.01 0.01 0.01 0.01 0.02 0.03 0.03 0.04 0.04 0.05 0.05 0.06 0.07 0.08 0.07 0.06 0.04 0.04 0.04 0.03 0.02 0.02 0.02 0.02 0.02 0.02 0.03 0.04 0.05 0.05
0.00 0.00 0.00 0.00 0.00 0.00 0.00 0.00 0.00 0.00 0.00 0.00 0.00 0.00 0.00 0.00 0.00 0.00 0.00 0.00 0.00 0.00 0.00 0.00 0.00 0.00 0.00 0.00 0.00 0.00 0.00 0.00 0.00 0.00 0.00 0.00 0.00 0.01 0.01 0.01 0.01 0.02 0.02 0.03 0.03 0.03 0.04 0.04 0.05 0.06 0.07 0.08 0.09 0.08 0.06 0.05 0.04 0.04 0.03 0.02 0.02 0.02 0.01 0.01 0.01 0.01 0.02 0.03 0.03
0.00 0.00 0.00 0.00 0.00 0.00 0.00 0.00 0.00 0.00 0.00 0.00 0.00 0.00 0.00 0.00 0.00 0.00 0.00 0.00 0.00 0.00 0.00 0.00 0.00 0.00 0.00 0.00 0.00 0.00 0.00 0.00 0.00 0.00 0.00 0.00 0.01 0.01 0.01 0.01 0.01 0.02 0.02 0.04 0.03 0.04 0.04 0.05 0.05 0.06 0.08 0.11 0.10 0.08 0.06 0.05 0.04 0.03 0.02 0.02 0.02 0.02 0.02 0.02 0.01 0.01 0.01 0.01 0.01
0.00 0.00 0.00 0.00 0.00 0.00 0.00 0.00 0.00 0.00 0.00 0.00 0.00 0.00 0.00 0.00 0.00 0.00 0.00 0.00 0.00 0.00 0.00 0.00 0.00 0.00 0.00 0.00 0.00 0.00 0.00 0.00 0.00 0.00 0.00 0.00 0.01 0.01 0.02 0.01 0.01 0.02 0.03 0.04 0.04 0.04 0.04 0.05 0.05 0.06 0.08 0.15 0.11 0.08 0.06 0.05 0.04 0.03 0.02 0.02 0.02 0.01 0.01 0.01 0.01 0.01 0.01 0.00 0.00
0.00 0.00 0.00 0.00 0.00 0.00 0.00 0.00 0.00 0.00 0.00 0.00 0.00 0.00 0.00 0.00 0.00 0.00 0.00 0.00 0.00 0.00 0.00 0.00 0.00 0.00 0.00 0.00 0.00 0.00 0.00 0.00 0.00 0.01 0.01 0.01 0.01 0.02 0.02 0.02 0.01 0.02 0.03 0.03 0.03 0.03 0.04 0.05 0.05 0.07 0.10 0.15 0.12 0.09 0.06 0.05 0.04 0.03 0.02 0.02 0.02 0.02 0.01 0.01 0.01 0.01 0.01 0.00 0.00
0.00 0.00 0.00 0.00 0.00 0.00 0.00 0.00 0.00 0.00 0.00 0.00 0.00 0.00 0.00 0.00 0.00 0.00 0.00 0.00 0.00 0.00 0.00 0.00 0.00 0.00 0.00 0.00 0.00 0.00 0.00 0.00 0.00 0.01 0.01 0.01 0.01 0.02 0.03 0.03 0.02 0.02 0.02 0.03 0.03 0.03 0.04 0.04 0.06 0.08 0.12 0.18 0.11 0.08 0.07 0.06 0.04 0.03 0.02 0.02 0.02 0.02 0.01 0.01 0.01 0.01 0.01 0.01 0.01
0.00 0.00 0.00 0.00 0.00 0.00 0.00 0.00 0.00 0.00 0.00 0.00 0.00 0.00 0.00 0.00 0.00 0.00 0.00 0.00 0.00 0.00 0.00 0.00 0.00 0.00 0.00 0.00 0.00 0.01 0.01 0.01 0.01 0.01 0.02 0.02 0.02 0.02 0.03 0.05 0.03 0.02 0.02 0.02 0.02 0.03 0.04 0.04 0.06 0.09 0.13 0.18 0.13 0.10 0.08 0.07 0.05 0.03 0.02 0.02 0.02 0.02 0.02 0.02 0.01 0.01 0.01 0.01 0.01
0.00 0.00 0.00 0.00 0.00 0.00 0.00 0.00 0.00 0.00 0.00 0.00 0.00 0.00 0.00 0.00 0.00 0.00 0.00 0.00 0.00 0.00 0.00 0.00 0.00 0.00 0.00 0.00 0.01 0.01 0.01 0.01 0.01 0.02 0.02 0.03 0.02 0.02 0.03 0.04 0.03 0.02 0.01 0.01 0.01 0.02 0.03 0.04 0.06 0.09 0.13 0.17 0.13 0.11 0.10 0.07 0.06 0.05 0.03 0.02 0.02 0.02 0.02 0.02 0.02 0.02 0.02 0.01 0.01
0.00 0.00 0.00 0.00 0.00 0.00 0.00 0.00 0.00 0.00 0.00 0.00 0.00 0.00 0.00 0.00 0.00 0.00 0.00 0.00 0.00 0.00 0.00 0.00 0.00 0.00 0.00 0.00 0.01 0.01 0.01 0.01 0.01 0.01 0.02 0.02 0.02 0.03 0.03 0.03 0.03 0.02 0.01 0.01 0.01 0.02 0.02 0.04 0.05 0.09 0.13 0.17 0.14 0.12 0.11 0.09 0.07 0.05 0.03 0.02 0.02 0.02 0.03 0.03 0.02 0.02 0.02 0.02 0.01
MSLP
1017.81 1017.77 1017.73 1017.73 1017.69 1017.69 1017.69 1017.61 1017.57 1017.57 1017.57 1017.57 1017.53 1017.45 1017.41 1017.41 1017.37 1017.25 1017.17 1017.13 1017.05 1016.97 1016.85 1016.69 1016.65 1016.57 1016.49 1016.41 1016.41 1016.37 1016.29 1016.21 1016.17 1016.13 1016.05 1015.97 1015.85 1015.77 1015.65 1015.57 1015.45 1015.41 1015.37 1015.29 1015.21 1015.13 1015.13 1015.09 1015.13 1015.01 1014.89 1014.81 1014.69 1014.57 1014.49 1014.41 1014.41 1014.41 1014.41 1014.41 1014.41 1014.37 1014.33 1014.33 1014.29 1014.21 1014.17 1014.13 1014.09
1017.69 1017.69 1017.69 1017.69 1017.69 1017.65 1017.61 1017.57 1017.49 1017.45 1017.41 1017.37 1017.29 1017.25 1017.25 1017.21 1017.17 1017.13 1016.97 1016.93 1016.81 1016.69 1016.57 1016.49 1016.41 1016.41 1016.33 1016.25 1016.21 1016.17 1016.17 1016.13 1016.05 1015.97 1015.97 1015.89 1015.77 1015.69 1015.61 1015.53 1015.41 1015.33 1015.25 1015.25 1015.17 1015.09 1015.01 1014.97 1014.97 1014.89 1014.73 1014.57 1014.49 1014.41 1014.29 1014.21 1014.17 1014.21 1014.21 1014.21 1014.13 1014.13 1014.09 1014.05 1013.97 1013.97 1013.93 1013.89 1013.85
1017.61 1017.61 1017.61 1017.61 1017.65 1017.61 1017.57 1017.53 1017.41 1017.37 1017.29 1017.25 1017.17 1017.13 1017.09 1017.09 1017.01 1016.93 1016.85 1016.69 1016.57 1016.53 1016.45 1016.37 1016.29 1016.21 1016.17 1016.09 1016.01 1015.97 1015.97 1015.93 1015.89 1015.89 1015.85 1015.73 1015.65 1015.57 1015.53 1015.45 1015.37 1015.25 1015.17 1015.13 1015.09 1014.97 1014.89 1014.85 1014.85 1014.73 1014.57 1014.41 1014.37 1014.25 1014.13 1014.01 1013.97 1013.97 1013.97 1013.97 1013.85 1013.85 1013.81 1013.73 1013.69 1013.69 1013.65 1013.61 1013.61
1017.57 1017.57 1017.57 1017.57 1017.57 1017.57 1017.49 1017.41 1017.33 1017.25 1017.17 1017.09 1017.01 1016.97 1016.93 1016.89 1016.85 1016.73 1016.61 1016.53 1016.45 1016.41 1016.29 1016.17 1016.13 1016.05 1015.97 1015.93 1015.85 1015.85 1015.81 1015.77 1015.77 1015.77 1015.69 1015.61 1015.53 1015.41 1015.37 1015.29 1015.25 1015.13 1015.01 1014.97 1014.89 1014.81 1014.73 1014.69 1014.69 1014.57 1014.41 1014.29 1014.17 1014.05 1013.89 1013.77 1013.77 1013.73 1013.69 1013.61 1013.57 1013.57 1013.53 1013.45 1013.41 1013.41 1013.41 1013.37 1013.37
1017.57 1017.53 1017.45 1017.41 1017.41 1017.37 1017.33 1017.29 1017.25 1017.13 1017.05 1016.97 1016.89 1016.85 1016.81 1016.69 1016.61 1016.57 1016.45 1016.41 1016.29 1016.13 1016.05 1015.97 1015.93 1015.85 1015.81 1015.77 1015.69 1015.69 1015.61 1015.61 1015.57 1015.57 1015.53 1015.45 1015.37 1015.25 1015.17 1015.13 1015.09 1014.97 1014.85 1014.81 1014.69 1014.65 1014.57 1014.57 1014.49 1014.41 1014.25 1014.13 1013.97 1013.81 1013.65 1013.57 1013.57 1013.49 1013.41 1013.33 1013.25 1013.25 1013.25 1013.21 1013.13 1013.13 1013.13 1013.13 1013.13
1017.45 1017.41 1017.37 1017.33 1017.33 1017.25 1017.21 1017.13 1017.09 1016.97 1016.93 1016.85 1016.85 1016.77 1016.69 1016.53 1016.41 1016.37 1016.29 1016.21 1016.09 1015.97 1015.89 1015.85 1015.77 1015.69 1015.65 1015.57 1015.57 1015.49 1015.45 1015.41 1015.37 1015.33 1015.29 1015.25 1015.13 1015.05 1014.97 1014.89 1014.85 1014.73 1014.69 1014.57 1014.49 1014.41 1014.37 1014.33 1014.29 1014.17 1014.01 1013.85 1013.73 1013.57 1013.45 1013.41 1013.37 1013.29 1013.21 1013.13 1013.05 1012.97 1012.97 1012.93 1012.89 1012.85 1012.85 1012.85 1012.85
1017.37 1017.29 1017.25 1017.25 1017.25 1017.17 1017.13 1017.01 1016.93 1016.85 1016.85 1016.77 1016.73 1016.65 1016.53 1016.41 1016.29 1016.25 1016.17 1016.09 1015.97 1015.85 1015.77 1015.69 1015.65 1015.57 1015.53 1015.45 1015.41 1015.37 1015.29 1015.25 1015.17 1015.13 1015.13 1015.01 1014.93 1014.85 1014.77 1014.69 1014.61 1014.57 1014.45 1014.37 1014.29 1014.21 1014.13 1014.13 1014.09 1013.93 1013.77 1013.61 1013.45 1013.29 1013.25 1013.21 1013.17 1013.13 1013.05 1012.93 1012.77 1012.69 1012.69 1012.69 1012.61 1012.65 1012.65 1012.65 1012.65
1017.33 1017.25 1017.17 1017.13 1017.09 1017.01 1016.97 1016.85 1016.81 1016.73 1016.69 1016.61 1016.57 1016.49 1016.37 1016.29 1016.21 1016.13 1016.05 1015.97 1015.89 1015.81 1015.69 1015.57 1015.53 1015.45 1015.41 1015.37 1015.29 1015.25 1015.13 1015.09 1015.01 1014.93 1014.85 1014.81 1014.69 1014.61 1014.57 1014.49 1014.41 1014.29 1014.25 1014.13 1014.09 1013.97 1013.93 1013.89 1013.85 1013.69 1013.49 1013.41 1013.21 1013.05 1012.93 1012.97 1012.89 1012.85 1012.85 1012.69 1012.57 1012.49 1012.41 1012.41 1012.41 1012.41 1012.41 1012.41 1012.41
1017.25 1017.17 1017.09 1016.97 1016.93 1016.85 1016.77 1016.69 1016.65 1016.61 1016.57 1016.49 1016.41 1016.33 1016.25 1016.17 1016.13 1016.05 1015.97 1015.85 1015.73 1015.61 1015.53 1015.41 1015.37 1015.29 1015.25 1015.25 1015.17 1015.09 1014.97 1014.89 1014.81 1014.69 1014.61 1014.53 1014.45 1014.37 1014.29 1014.21 1014.13 1014.01 1013.93 1013.85 1013.85 1013.77 1013.69 1013.65 1013.57 1013.41 1013.21 1013.05 1012.89 1012.73 1012.65 1012.61 1012.57 1012.57 1012.49 1012.41 1012.29 1012.21 1012.13 1012.13 1012.13 1012.13 1012.13 1012.13 1012.13
1017.13 1017.01 1016.93 1016.85 1016.77 1016.69 1016.65 1016.57 1016.53 1016.49 1016.45 1016.41 1016.29 1016.21 1016.13 1016.05 1015.97 1015.93 1015.85 1015.69 1015.57 1015.49 1015.41 1015.33 1015.25 1015.17 1015.13 1015.05 1014.97 1014.85 1014.77 1014.69 1014.57 1014.45 1014.33 1014.25 1014.17 1014.09 1013.97 1013.89 1013.81 1013.69 1013.61 1013.57 1013.49 1013.45 1013.41 1013.41 1013.25 1013.09 1012.89 1012.77 1012.65 1012.49 1012.33 1012.29 1012.29 1012.21 1012.13 1012.01 1011.97 1011.89 1011.81 1011.81 1011.81 1011.85 1011.85 1011.85 1011.85
1016.97 1016.85 1016.81 1016.73 1016.65 1016.57 1016.53 1016.49 1016.45 1016.41 1016.37 1016.29 1016.17 1016.09 1016.01 1015.97 1015.85 1015.73 1015.61 1015.49 1015.45 1015.37 1015.25 1015.17 1015.13 1015.01 1014.93 1014.85 1014.77 1014.65 1014.53 1014.41 1014.29 1014.17 1014.05 1013.97 1013.85 1013.73 1013.65 1013.53 1013.45 1013.37 1013.25 1013.17 1013.13 1013.13 1013.09 1013.05 1012.93 1012.81 1012.61 1012.45 1012.41 1012.29 1012.13 1012.05 1011.97 1011.93 1011.81 1011.69 1011.65 1011.57 1011.53 1011.45 1011.49 1011.53 1011.53 1011.53 1011.53
1016.85 1016.77 1016.69 1016.61 1016.57 1016.53 1016.49 1016.49 1016.41 1016.37 1016.29 1016.21 1016.09 1015.97 1015.85 1015.77 1015.65 1015.53 1015.41 1015.33 1015.29 1015.17 1015.01 1014.93 1014.89 1014.85 1014.69 1014.57 1014.45 1014.33 1014.21 1014.13 1014.05 1013.93 1013.85 1013.69 1013.57 1013.45 1013.37 1013.25 1013.17 1013.09 1012.97 1012.89 1012.85 1012.81 1012.73 1012.61 1012.53 1012.41 1012.29 1012.13 1012.05 1011.97 1011.85 1011.77 1011.73 1011.65 1011.49 1011.37 1011.33 1011.29 1011.21 1011.13 1011.13 1011.13 1011.17 1011.21 1011.21
1016.77 1016.73 1016.65 1016.57 1016.57 1016.53 1016.49 1016.45 1016.41 1016.29 1016.13 1016.05 1015.93 1015.81 1015.69 1015.53 1015.41 1015.29 1015.25 1015.17 1015.05 1014.93 1014.81 1014.69 1014.65 1014.57 1014.45 1014.33 1014.21 1014.13 1014.01 1013.93 1013.85 1013.73 1013.61 1013.49 1013.37 1013.25 1013.13 1012.97 1012.89 1012.77 1012.69 1012.57 1012.53 1012.45 1012.41 1012.29 1012.17 1012.05 1011.93 1011.81 1011.69 1011.57 1011.45 1011.41 1011.41 1011.29 1011.17 1011.09 1011.01 1010.97 1010.85 1010.77 1010.77 1010.81 1010.81 1010.85 1010.85
1016.73 1016.69 1016.61 1016.57 1016.57 1016.53 1016.45 1016.41 1016.29 1016.13 1016.01 1015.85 1015.73 1015.57 1015.45 1015.33 1015.17 1015.13 1015.05 1014.97 1014.85 1014.73 1014.65 1014.53 1014.41 1014.29 1014.25 1014.13 1014.05 1013.97 1013.85 1013.77 1013.69 1013.57 1013.41 1013.25 1013.13 1013.01 1012.89 1012.73 1012.61 1012.53 1012.41 1012.29 1012.21 1012.13 1012.09 1011.97 1011.85 1011.73 1011.61 1011.45 1011.33 1011.21 1011.13 1011.09 1010.97 1010.89 1010.81 1010.73 1010.69 1010.57 1010.45 1010.41 1010.41 1010.41 1010.45 1010.49 1010.45
1016.73 1016.69 1016.61 1016.57 1016.49 1016.45 1016.41 1016.29 1016.13 1015.97 1015.85 1015.69 1015.57 1015.41 1015.29 1015.13 1015.01 1014.93 1014.89 1014.85 1014.73 1014.65 1014.53 1014.41 1014.29 1014.13 1014.05 1013.97 1013.89 1013.81 1013.69 1013.61 1013.49 1013.37 1013.21 1013.05 1012.93 1012.77 1012.65 1012.53 1012.37 1012.29 1012.13 1012.01 1011.93 1011.85 1011.73 1011.61 1011.53 1011.41 1011.29 1011.13 1011.01 1010.89 1010.81 1010.73 1010.65 1010.53 1010.45 1010.37 1010.25 1010.13 1010.09 1010.01 1010.01 1010.09 1010.13 1010.13 1010.13
1016.69 1016.65 1016.57 1016.53 1016.41 1016.37 1016.29 1016.13 1015.97 1015.85 1015.69 1015.57 1015.41 1015.29 1015.17 1015.01 1014.89 1014.85 1014.81 1014.73 1014.61 1014.53 1014.41 1014.33 1014.21 1014.05 1013.89 1013.81 1013.73 1013.65 1013.57 1013.41 1013.29 1013.17 1013.01 1012.85 1012.69 1012.53 1012.41 1012.29 1012.13 1011.97 1011.85 1011.77 1011.61 1011.53 1011.41 1011.25 1011.17 1011.09 1010.97 1010.85 1010.69 1010.57 1010.49 1010.41 1010.29 1010.21 1010.09 1009.97 1009.85 1009.77 1009.69 1009.65 1009.69 1009.69 1009.69 1009.69 1009.73
1016.69 1016.57 1016.53 1016.45 1016.33 1016.25 1016.13 1016.01 1015.85 1015.69 1015.57 1015.41 1015.29 1015.21 1015.13 1014.97 1014.85 1014.77 1014.73 1014.69 1014.57 1014.45 1014.33 1014.21 1014.13 1013.97 1013.81 1013.65 1013.57 1013.53 1013.41 1013.25 1013.13 1012.97 1012.81 1012.61 1012.45 1012.29 1012.13 1011.97 1011.85 1011.69 1011.57 1011.49 1011.33 1011.21 1011.05 1010.93 1010.85 1010.73 1010.65 1010.57 1010.41 1010.29 1010.13 1010.05 1009.93 1009.85 1009.69 1009.61 1009.53 1009.41 1009.33 1009.25 1009.25 1009.25 1009.29 1009.29 1009.29
1016.57 1016.49 1016.41 1016.33 1016.25 1016.13 1015.97 1015.85 1015.73 1015.61 1015.49 1015.37 1015.25 1015.13 1015.05 1014.97 1014.85 1014.73 1014.65 1014.57 1014.49 1014.41 1014.29 1014.13 1013.97 1013.85 1013.73 1013.57 1013.41 1013.33 1013.25 1013.09 1012.89 1012.73 1012.57 1012.37 1012.25 1012.05 1011.89 1011.69 1011.57 1011.45 1011.33 1011.21 1011.09 1010.93 1010.77 1010.61 1010.53 1010.45 1010.37 1010.25 1010.13 1009.97 1009.85 1009.69 1009.57 1009.45 1009.33 1009.21 1009.13 1009.01 1008.93 1008.85 1008.85 1008.81 1008.81 1008.85 1008.81
1016.53 1016.41 1016.33 1016.25 1016.13 1015.97 1015.89 1015.77 1015.69 1015.57 1015.41 1015.29 1015.21 1015.09 1014.97 1014.85 1014.81 1014.69 1014.57 1014.41 1014.37 1014.29 1014.17 1014.01 1013.85 1013.69 1013.57 1013.41 1013.25 1013.13 1012.97 1012.85 1012.69 1012.45 1012.29 1012.13 1011.97 1011.81 1011.61 1011.45 1011.29 1011.21 1011.09 1010.97 1010.77 1010.61 1010.49 1010.33 1010.21 1010.13 1010.05 1009.93 1009.81 1009.69 1009.57 1009.41 1009.25 1009.09 1008.93 1008.81 1008.69 1008.57 1008.49 1008.41 1008.37 1008.33 1008.33 1008.33 1008.29
1016.49 1016.37 1016.25 1016.13 1015.97 1015.89 1015.81 1015.69 1015.57 1015.45 1015.33 1015.25 1015.13 1015.01 1014.93 1014.81 1014.69 1014.61 1014.49 1014.33 1014.17 1014.13 1014.01 1013.89 1013.73 1013.57 1013.33 1013.17 1013.05 1012.89 1012.73 1012.57 1012.41 1012.21 1012.01 1011.85 1011.69 1011.53 1011.33 1011.21 1011.09 1010.93 1010.81 1010.69 1010.49 1010.33 1010.21 1010.09 1009.97 1009.85 1009.73 1009.65 1009.53 1009.37 1009.25 1009.09 1008.89 1008.73 1008.57 1008.41 1008.29 1008.13 1008.01 1007.93 1007.85 1007.85 1007.85 1007.81 1007.81
1016.33 1016.25 1016.13 1015.97 1015.89 1015.85 1015.73 1015.57 1015.49 1015.41 1015.29 1015.21 1015.13 1014.97 1014.85 1014.73 1014.61 1014.49 1014.37 1014.21 1014.01 1013.93 1013.85 1013.73 1013.57 1013.41 1013.17 1012.97 1012.81 1012.61 1012.41 1012.25 1012.13 1011.93 1011.69 1011.57 1011.37 1011.21 1011.05 1010.97 1010.85 1010.69 1010.49 1010.33 1010.21 1010.09 1009.93 1009.81 1009.69 1009.57 1009.45 1009.37 1009.25 1009.05 1008.93 1008.77 1008.57 1008.41 1008.21 1008.01 1007.85 1007.69 1007.57 1007.45 1007.41 1007.33 1007.29 1007.25 1007.29
1016.21 1016.13 1016.01 1015.93 1015.85 1015.73 1015.61 1015.49 1015.41 1015.33 1015.25 1015.13 1015.01 1014.89 1014.73 1014.65 1014.49 1014.33 1014.17 1014.01 1013.89 1013.81 1013.69 1013.53 1013.37 1013.17 1012.97 1012.77 1012.57 1012.33 1012.13 1011.93 1011.77 1011.57 1011.41 1011.25 1011.09 1010.89 1010.77 1010.69 1010.57 1010.41 1010.21 1010.01 1009.93 1009.81 1009.69 1009.57 1009.41 1009.33 1009.25 1009.09 1008.93 1008.73 1008.57 1008.45 1008.29 1008.09 1007.89 1007.69 1007.49 1007.33 1007.21 1007.09 1006.97 1006.89 1006.85 1006.81 1006.77
1016.09 1016.01 1015.93 1015.85 1015.69 1015.61 1015.53 1015.41 1015.33 1015.25 1015.13 1015.01 1014.89 1014.77 1014.61 1014.49 1014.29 1014.13 1013.97 1013.85 1013.73 1013.57 1013.41 1013.25 1013.09 1012.93 1012.73 1012.57 1012.37 1012.13 1011.89 1011.69 1011.41 1011.21 1011.09 1010.97 1010.85 1010.69 1010.53 1010.45 1010.29 1010.13 1009.89 1009.69 1009.57 1009.49 1009.41 1009.25 1009.13 1009.01 1008.89 1008.77 1008.57 1008.41 1008.29 1008.13 1007.97 1007.81 1007.61 1007.41 1007.25 1007.05 1006.89 1006.73 1006.61 1006.53 1006.41 1006.33 1006.29
1016.01 1015.93 1015.85 1015.69 1015.61 1015.53 1015.41 1015.33 1015.25 1015.13 1015.05 1014.89 1014.77 1014.61 1014.45 1014.29 1014.13 1013.93 1013.77 1013.61 1013.45 1013.33 1013.21 1013.01 1012.85 1012.65 1012.41 1012.29 1012.09 1011.89 1011.69 1011.41 1011.13 1010.85 1010.69 1010.57 1010.49 1010.41 1010.25 1010.13 1009.93 1009.73 1009.53 1009.33 1009.25 1009.17 1009.09 1008.97 1008.81 1008.65 1008.49 1008.33 1008.17 1007.97 1007.81 1007.69 1007.53 1007.41 1007.25 1007.05 1006.89 1006.73 1006.57 1006.41 1006.29 1006.17 1006.05 1005.93 1005.89
1015.97 1015.85 1015.77 1015.65 1015.57 1015.45 1015.37 1015.25 1015.17 1015.05 1014.93 1014.73 1014.57 1014.45 1014.29 1014.13 1013.93 1013.77 1013.57 1013.41 1013.21 1013.05 1012.93 1012.73 1012.57 1012.37 1012.17 1011.97 1011.73 1011.57 1011.33 1011.13 1010.85 1010.61 1010.41 1010.21 1010.13 1010.01 1009.89 1009.73 1009.57 1009.37 1009.17 1008.97 1008.85 1008.77 1008.69 1008.61 1008.49 1008.29 1008.13 1007.97 1007.81 1007.57 1007.41 1007.25 1007.13 1006.97 1006.81 1006.65 1006.53 1006.37 1006.21 1006.05 1005.93 1005.81 1005.69 1005.57 1005.53
1015.89 1015.81 1015.69 1015.57 1015.49 1015.41 1015.33 1015.25 1015.13 1014.97 1014.81 1014.61 1014.41 1014.29 1014.09 1013.89 1013.73 1013.57 1013.41 1013.17 1012.97 1012.77 1012.61 1012.45 1012.29 1012.09 1011.85 1011.65 1011.41 1011.13 1010.97 1010.81 1010.61 1010.41 1010.13 1009.93 1009.73 1009.65 1009.57 1009.41 1009.25 1009.05 1008.85 1008.69 1008.53 1008.41 1008.33 1008.25 1008.13 1008.05 1007.93 1007.69 1007.53 1007.29 1007.09 1006.89 1006.73 1006.57 1006.45 1006.29 1006.13 1006.01 1005.85 1005.65 1005.49 1005.41 1005.29 1005.25 1005.17
1015.81 1015.69 1015.57 1015.49 1015.41 1015.33 1015.25 1015.13 1014.97 1014.85 1014.69 1014.49 1014.33 1014.13 1013.89 1013.69 1013.57 1013.37 1013.17 1012.97 1012.77 1012.57 1012.37 1012.17 1011.97 1011.81 1011.57 1011.29 1011.09 1010.85 1010.65 1010.45 1010.29 1010.13 1009.89 1009.69 1009.53 1009.37 1009.25 1009.09 1008.93 1008.77 1008.57 1008.37 1008.21 1008.09 1007.97 1007.89 1007.81 1007.69 1007.65 1007.49 1007.29 1007.09 1006.85 1006.61 1006.45 1006.29 1006.17 1006.01 1005.85 1005.69 1005.49 1005.29 1005.13 1004.97 1004.93 1004.89 1004.85
1015.73 1015.65 1015.57 1015.45 1015.37 1015.25 1015.09 1014.97 1014.85 1014.69 1014.53 1014.37 1014.17 1013.97 1013.73 1013.57 1013.37 1013.17 1012.97 1012.77 1012.53 1012.33 1012.13 1011.93 1011.69 1011.49 1011.25 1011.01 1010.77 1010.57 1010.41 1010.25 1010.05 1009.85 1009.69 1009.49 1009.29 1009.13 1008.97 1008.81 1008.57 1008.41 1008.17 1007.97 1007.85 1007.69 1007.57 1007.41 1007.33 1007.25 1007.17 1007.13 1006.97 1006.81 1006.61 1006.41 1006.21 1006.05 1005.89 1005.73 1005.57 1005.37 1005.17 1004.97 1004.85 1004.69 1004.61 1004.57 1004.49
1015.69 1015.61 1015.53 1015.41 1015.29 1015.13 1014.97 1014.89 1014.69 1014.57 1014.41 1014.21 1013.97 1013.77 1013.57 1013.41 1013.13 1012.93 1012.69 1012.53 1012.33 1012.13 1011.89 1011.69 1011.41 1011.21 1010.97 1010.77 1010.57 1010.37 1010.17 1009.97 1009.81 1009.65 1009.41 1009.25 1009.01 1008.85 1008.61 1008.41 1008.21 1007.97 1007.73 1007.57 1007.37 1007.21 1007.05 1006.93 1006.85 1006.73 1006.69 1006.61 1006.57 1006.41 1006.17 1005.97 1005.81 1005.65 1005.49 1005.37 1005.21 1005.05 1004.89 1004.69 1004.57 1004.41 1004.33 1004.29 1004.21
1015.65 1015.57 1015.49 1015.37 1015.21 1015.05 1014.89 1014.73 1014.57 1014.41 1014.21 1014.01 1013.85 1013.61 1013.41 1013.17 1012.97 1012.69 1012.49 1012.29 1012.13 1011.89 1011.69 1011.45 1011.25 1011.01 1010.81 1010.57 1010.41 1010.17 1009.97 1009.69 1009.53 1009.37 1009.17 1008.93 1008.69 1008.45 1008.25 1008.01 1007.85 1007.57 1007.25 1007.05 1006.89 1006.69 1006.53 1006.41 1006.29 1006.21 1006.13 1006.09 1006.09 1005.97 1005.73 1005.53 1005.33 1005.17 1005.05 1004.89 1004.77 1004.69 1004.57 1004.41 1004.29 1004.13 1004.01 1003.97 1003.93
1015.57 1015.53 1015.41 1015.29 1015.13 1014.97 1014.77 1014.57 1014.41 1014.25 1014.05 1013.85 1013.65 1013.45 1013.25 1012.97 1012.73 1012.53 1012.33 1012.13 1011.89 1011.65 1011.41 1011.25 1011.09 1010.85 1010.57 1010.37 1010.17 1009.97 1009.69 1009.45 1009.25 1009.09 1008.89 1008.69 1008.41 1008.13 1007.85 1007.61 1007.37 1007.09 1006.85 1006.57 1006.41 1006.21 1005.97 1005.85 1005.73 1005.65 1005.57 1005.53 1005.53 1005.41 1005.21 1004.97 1004.85 1004.69 1004.53 1004.41 1004.29 1004.21 1004.17 1004.13 1003.97 1003.81 1003.69 1003.61 1003.57
1015.57 1015.49 1015.41 1015.25 1015.05 1014.85 1014.65 1014.41 1014.29 1014.09 1013.89 1013.73 1013.53 1013.25 1013.05 1012.85 1012.57 1012.33 1012.13 1011.97 1011.73 1011.45 1011.25 1011.01 1010.81 1010.57 1010.29 1010.05 1009.85 1009.65 1009.41 1009.21 1008.97 1008.77 1008.57 1008.33 1008.05 1007.73 1007.41 1007.17 1006.89 1006.61 1006.33 1006.13 1005.85 1005.65 1005.45 1005.29 1005.17 1005.05 1004.97 1004.89 1004.93 1004.81 1004.65 1004.45 1004.29 1004.13 1003.97 1003.85 1003.77 1003.73 1003.73 1003.69 1003.61 1003.49 1003.37 1003.25 1003.13
1015.53 1015.41 1015.33 1015.17 1014.97 1014.73 1014.53 1014.33 1014.13 1013.97 1013.77 1013.57 1013.33 1013.13 1012.85 1012.61 1012.33 1012.13 1011.89 1011.69 1011.57 1011.33 1011.09 1010.81 1010.57 1010.29 1010.05 1009.85 1009.57 1009.33 1009.13 1008.89 1008.69 1008.41 1008.17 1007.97 1007.69 1007.37 1007.01 1006.69 1006.41 1006.13 1005.81 1005.57 1005.29 1005.09 1004.89 1004.73 1004.57 1004.41 1004.33 1004.29 1004.25 1004.13 1004.01 1003.89 1003.69 1003.57 1003.41 1003.25 1003.17 1003.13 1003.17 1003.21 1003.17 1003.13 1003.05 1002.97 1002.85
1015.45 1015.37 1015.21 1015.05 1014.85 1014.61 1014.41 1014.21 1014.01 1013.85 1013.61 1013.41 1013.13 1012.93 1012.69 1012.49 1012.21 1011.97 1011.69 1011.49 1011.33 1011.13 1010.85 1010.57 1010.41 1010.13 1009.89 1009.65 1009.41 1009.13 1008.85 1008.57 1008.29 1008.05 1007.77 1007.53 1007.25 1006.97 1006.61 1006.25 1005.93 1005.57 1005.29 1005.05 1004.77 1004.57 1004.33 1004.13 1003.97 1003.81 1003.65 1003.57 1003.57 1003.49 1003.33 1003.21 1003.05 1002.89 1002.73 1002.61 1002.57 1002.57 1002.57 1002.61 1002.61 1002.61 1002.65 1002.65 1002.57
1015.41 1015.29 1015.13 1014.93 1014.69 1014.49 1014.29 1014.09 1013.89 1013.69 1013.45 1013.21 1012.93 1012.69 1012.49 1012.29 1012.13 1011.85 1011.57 1011.33 1011.13 1010.85 1010.57 1010.33 1010.13 1009.93 1009.69 1009.41 1009.17 1008.93 1008.61 1008.29 1007.97 1007.69 1007.37 1007.13 1006.85 1006.53 1006.13 1005.73 1005.37 1005.05 1004.81 1004.53 1004.29 1003.97 1003.77 1003.57 1003.33 1003.13 1002.97 1002.93 1002.85 1002.81 1002.69 1002.53 1002.37 1002.21 1002.05 1001.97 1001.93 1001.89 1001.93 1001.97 1002.01 1002.05 1002.09 1002.17 1002.21
1015.37 1015.25 1015.09 1014.89 1014.65 1014.41 1014.17 1013.97 1013.77 1013.53 1013.25 1013.05 1012.77 1012.53 1012.29 1012.09 1011.85 1011.65 1011.41 1011.17 1010.85 1010.57 1010.29 1010.05 1009.85 1009.61 1009.37 1009.09 1008.85 1008.57 1008.29 1007.97 1007.61 1007.25 1006.97 1006.69 1006.41 1006.09 1005.69 1005.25 1004.85 1004.53 1004.21 1003.97 1003.69 1003.45 1003.21 1002.97 1002.69 1002.49 1002.37 1002.29 1002.17 1002.09 1001.93 1001.77 1001.65 1001.45 1001.33 1001.29 1001.21 1001.17 1001.25 1001.33 1001.41 1001.45 1001.53 1001.61 1001.69
1015.25 1015.17 1015.05 1014.85 1014.57 1014.29 1014.09 1013.89 1013.69 1013.41 1013.13 1012.85 1012.61 1012.41 1012.13 1011.89 1011.57 1011.33 1011.13 1010.97 1010.69 1010.37 1010.05 1009.77 1009.57 1009.29 1009.05 1008.81 1008.49 1008.17 1007.89 1007.61 1007.29 1006.93 1006.57 1006.25 1005.97 1005.69 1005.25 1004.81 1004.37 1003.97 1003.65 1003.41 1003.13 1002.85 1002.61 1002.37 1002.09 1001.85 1001.69 1001.61 1001.49 1001.37 1001.21 1001.09 1000.89 1000.73 1000.65 1000.57 1000.49 1000.49 1000.57 1000.69 1000.77 1000.85 1000.93 1000.97 1001.09
1015.13 1015.09 1014.93 1014.73 1014.53 1014.25 1014.01 1013.77 1013.57 1013.33 1013.05 1012.73 1012.45 1012.21 1011.97 1011.69 1011.41 1011.13 1010.97 1010.81 1010.53 1010.21 1009.85 1009.53 1009.29 1009.01 1008.77 1008.53 1008.17 1007.85 1007.49 1007.25 1006.97 1006.61 1006.25 1005.85 1005.53 1005.25 1004.85 1004.41 1003.93 1003.49 1003.09 1002.81 1002.53 1002.29 1002.01 1001.77 1001.45 1001.25 1001.09 1000.97 1000.85 1000.69 1000.53 1000.41 1000.21 1000.05 999.93 999.85 999.81 999.85 999.89 1000.01 1000.13 1000.21 1000.29 1000.37 1000.45
1015.05 1014.97 1014.85 1014.65 1014.41 1014.21 1013.97 1013.69 1013.45 1013.21 1012.93 1012.61 1012.29 1011.97 1011.73 1011.53 1011.25 1010.97 1010.77 1010.61 1010.37 1010.09 1009.77 1009.41 1009.05 1008.73 1008.49 1008.25 1007.89 1007.49 1007.13 1006.81 1006.57 1006.25 1005.89 1005.49 1005.13 1004.81 1004.49 1004.09 1003.53 1002.97 1002.57 1002.25 1001.97 1001.69 1001.41 1001.13 1000.85 1000.57 1000.41 1000.29 1000.13 999.97 999.85 999.65 999.45 999.29 999.21 999.17 999.17 999.17 999.25 999.37 999.49 999.57 999.61 999.69 999.85
1014.93 1014.85 1014.69 1014.57 1014.37 1014.13 1013.85 1013.61 1013.33 1013.09 1012.81 1012.53 1012.17 1011.85 1011.57 1011.29 1011.05 1010.81 1010.57 1010.41 1010.17 1009.93 1009.61 1009.25 1008.85 1008.53 1008.21 1007.97 1007.65 1007.25 1006.81 1006.41 1006.09 1005.81 1005.49 1005.13 1004.69 1004.37 1004.01 1003.65 1003.13 1002.57 1002.13 1001.73 1001.41 1001.13 1000.85 1000.57 1000.25 999.97 999.77 999.57 999.41 999.25 999.05 998.89 998.69 998.57 998.45 998.45 998.53 998.57 998.65 998.73 998.85 998.97 999.01 999.13 999.29
1014.85 1014.73 1014.57 1014.41 1014.25 1014.01 1013.77 1013.53 1013.17 1012.85 1012.57 1012.37 1012.09 1011.73 1011.41 1011.13 1010.85 1010.65 1010.41 1010.21 1009.97 1009.69 1009.41 1009.05 1008.65 1008.29 1007.97 1007.69 1007.37 1006.97 1006.57 1006.05 1005.65 1005.29 1005.01 1004.69 1004.33 1003.93 1003.57 1003.17 1002.69 1002.17 1001.69 1001.25 1000.89 1000.61 1000.29 999.97 999.69 999.41 999.17 998.97 998.73 998.53 998.29 998.13 997.93 997.77 997.69 997.69 997.85 997.97 998.09 998.17 998.29 998.41 998.49 998.61 998.81
Thickness
5449 5448 5446 5445 5443 5443 5441 5440 5439 5437 5435 5433 5431 5430 5428 5426 5425 5423 5421 5420 5418 5417 5416 5415 5414 5413 5412 5411 5409 5408 5406 5405 5404 5403 5401 5399 5399 5399 5398 5397 5396 5396 5394 5394 5395 5395 5395 5394 5393 5394 5395 5396 5398 5399 5400 5402 5403 5404 5405 5407 5409 5411 5413 5414 5416 5417 5419 5421 5423
5444 5443 5441 5440 5439 5437 5436 5435 5433 5432 5430 5429 5427 5425 5423 5420 5419 5417 5416 5414 5413 5412 5411 5410 5410 5408 5407 5405 5404 5401 5400 5398 5396 5395 5394 5393 5392 5391 5390 5390 5389 5389 5388 5387 5387 5388 5388 5388 5388 5388 5389 5391 5392 5393 5394 5396 5397 5398 5399 5401 5403 5406 5408 5410 5411 5412 5414 5415 5418
5439 5438 5436 5435 5434 5433 5431 5430 5428 5427 5425 5423 5422 5420 5418 5416 5413 5412 5410 5410 5409 5407 5406 5405 5403 5402 5401 5399 5397 5395 5393 5392 5390 5388 5387 5386 5385 5384 5383 5382 5382 5382 5381 5381 5380 5380 5381 5381 5381 5382 5383 5385 5386 5388 5389 5390 5391 5392 5393 5395 5397 5400 5402 5405 5406 5407 5409 5410 5412
5435 5434 5432 5430 5429 5427 5426 5425 5423 5422 5421 5419 5417 5415 5413 5411 5409 5407 5406 5405 5404 5402 5401 5399 5397 5396 5394 5393 5391 5389 5387 5385 5383 5382 5380 5379 5378 5377 5376 5375 5375 5375 5374 5374 5374 5374 5374 5374 5374 5375 5377 5379 5381 5382 5384 5385 5386 5387 5388 5390 5392 5394 5397 5399 5401 5402 5403 5405 5407
5431 5430 5428 5427 5425 5423 5421 5420 5419 5417 5416 5414 5412 5410 5408 5406 5404 5403 5401 5399 5398 5397 5395 5393 5391 5389 5387 5386 5384 5382 5380 5378 5376 5375 5373 5372 5371 5371 5370 5369 5368 5368 5368 5368 5368 5368 5367 5368 5368 5369 5370 5372 5374 5376 5378 5380 5380 5382 5383 5384 5387 5389 5391 5393 5395 5397 5398 5400 5401
5427 5426 5424 5422 5421 5419 5417 5416 5414 5413 5411 5409 5407 5405 5403 5402 5400 5398 5396 5394 5392 5390 5388 5387 5384 5382 5380 5378 5377 5375 5373 5371 5370 5368 5367 5365 5365 5364 5363 5362 5362 5362 5361 5361 5361 5361 5361 5361 5361 5362 5364 5366 5368 5370 5372 5373 5374 5375 5377 5378 5381 5384 5385 5387 5389 5391 5392 5394 5396
5423 5422 5420 5418 5417 5415 5413 5411 5410 5408 5406 5404 5402 5399 5398 5396 5394 5392 5390 5387 5386 5384 5381 5379 5378 5375 5373 5371 5369 5368 5366 5365 5363 5362 5360 5359 5358 5358 5357 5356 5355 5355 5355 5355 5355 5355 5354 5354 5354 5355 5357 5359 5362 5364 5366 5367 5368 5369 5370 5373 5375 5377 5379 5381 5383 5385 5387 5389 5390
5419 5417 5416 5415 5413 5411 5409 5407 5405 5403 5401 5398 5396 5395 5392 5390 5387 5386 5383 5381 5379 5376 5375 5373 5371 5368 5366 5364 5362 5360 5359 5357 5356 5355 5354 5353 5352 5351 5351 5350 5349 5348 5348 5348 5347 5347 5347 5347 5347 5348 5350 5353 5355 5357 5359 5360 5361 5362 5364 5366 5369 5371 5374 5375 5377 5379 5381 5383 5384
5415 5414 5412 5411 5409 5407 5406 5403 5400 5398 5395 5393 5390 5388 5386 5384 5381 5378 5376 5374 5372 5370 5368 5366 5363 5361 5359 5357 5355 5353 5352 5351 5349 5348 5347 5346 5345 5345 5343 5343 5342 5341 5341 5341 5340 5340 5340 5339 5340 5341 5343 5346 5348 5350 5353 5354 5355 5355 5357 5360 5363 5366 5368 5370 5371 5373 5375 5377 5379
5412 5410 5409 5407 5405 5403 5400 5398 5395 5392 5389 5387 5385 5382 5380 5377 5374 5372 5370 5367 5365 5363 5360 5359 5357 5354 5351 5350 5348 5346 5344 5343 5342 5341 5340 5339 5339 5338 5337 5336 5335 5335 5334 5334 5333 5332 5332 5331 5332 5334 5336 5338 5341 5343 5345 5347 5348 5349 5351 5353 5356 5359 5362 5365 5366 5367 5369 5371 5373
5408 5406 5405 5403 5400 5397 5394 5392 5388 5386 5383 5380 5378 5376 5373 5371 5368 5365 5363 5361 5359 5356 5354 5352 5349 5347 5344 5343 5341 5340 5338 5337 5336 5334 5333 5332 5331 5331 5330 5329 5328 5327 5327 5326 5325 5324 5324 5324 5325 5327 5329 5331 5333 5335 5337 5339 5341 5343 5345 5347 5350 5353 5356 5358 5360 5361 5363 5365 5367
5404 5401 5399 5397 5394 5391 5388 5385 5382 5379 5377 5375 5372 5370 5368 5365 5362 5360 5357 5355 5352 5350 5348 5346 5343 5340 5338 5336 5335 5333 5332 5330 5328 5326 5326 5325 5324 5323 5323 5322 5321 5320 5320 5319 5318 5317 5316 5316 5317 5319 5321 5323 5325 5326 5329 5331 5333 5335 5338 5341 5343 5345 5349 5352 5354 5356 5357 5359 5362
5398 5395 5393 5390 5388 5385 5381 5378 5375 5373 5371 5369 5367 5364 5362 5360 5357 5354 5351 5348 5346 5344 5342 5340 5337 5334 5332 5330 5328 5326 5324 5322 5320 5319 5317 5317 5316 5315 5315 5314 5313 5313 5312 5312 5311 5310 5309 5309 5310 5312 5313 5315 5317 5320 5321 5323 5326 5328 5330 5334 5336 5339 5342 5345 5348 5350 5351 5354 5356
5392 5389 5387 5384 5381 5378 5375 5372 5369 5368 5365 5363 5361 5358 5356 5354 5352 5349 5346 5343 5340 5337 5336 5333 5331 5328 5326 5323 5320 5318 5316 5314 5312 5311 5310 5309 5309 5308 5307 5307 5307 5306 5306 5305 5304 5304 5303 5303 5303 5304 5305 5307 5309 5312 5314 5316 5318 5320 5323 5326 5329 5332 5335 5338 5341 5344 5346 5347 5350
5386 5383 5380 5378 5375 5372 5368 5366 5364 5361 5359 5357 5355 5353 5350 5348 5345 5343 5340 5336 5334 5331 5329 5326 5324 5321 5319 5316 5313 5311 5308 5306 5305 5304 5303 5302 5301 5301 5301 5300 5300 5300 5299 5299 5299 5298 5298 5297 5297 5298 5299 5300 5302 5304 5306 5308 5310 5312 5316 5319 5322 5325 5329 5332 5334 5337 5339 5342 5345
5380 5377 5374 5371 5369 5365 5362 5360 5358 5356 5354 5351 5349 5347 5344 5341 5339 5336 5333 5330 5327 5324 5321 5319 5316 5314 5311 5309 5306 5303 5301 5299 5297 5297 5296 5296 5295 5295 5295 5295 5294 5294 5294 5294 5293 5294 5294 5293 5293 5293 5293 5294 5295 5297 5299 5301 5303 5305 5308 5312 5315 5318 5321 5325 5328 5331 5333 5335 5339
5375 5372 5369 5365 5362 5360 5357 5355 5353 5350 5348 5345 5343 5340 5337 5335 5332 5330 5326 5323 5320 5317 5314 5311 5309 5306 5304 5301 5299 5297 5294 5292 5292 5291 5291 5290 5290 5289 5290 5289 5289 5290 5289 5289 5289 5290 5290 5290 5290 5289 5289 5289 5290 5291 5293 5294 5296 5299 5302 5304 5308 5311 5315 5318 5321 5324 5327 5330 5333
5369 5366 5363 5360 5357 5354 5352 5349 5347 5344 5341 5339 5336 5334 5331 5328 5325 5322 5319 5316 5312 5309 5306 5303 5301 5299 5296 5295 5293 5291 5289 5288 5287 5286 5286 5286 5285 5285 5285 5285 5285 5285 5284 5284 5285 5285 5286 5286 5286 5286 5285 5285 5285 5286 5287 5289 5291 5293 5295 5298 5301 5305 5308 5311 5315 5318 5321 5324 5328
5363 5360 5358 5355 5352 5349 5346 5343 5341 5338 5335 5333 5330 5328 5325 5322 5318 5315 5312 5309 5306 5302 5299 5296 5294 5292 5290 5288 5287 5286 5284 5283 5283 5282 5282 5282 5282 5281 5281 5281 5281 5281 5281 5281 5281 5281 5282 5283 5283 5282 5282 5282 5282 5282 5283 5284 5286 5288 5291 5293 5296 5299 5302 5305 5309 5312 5315 5319 5323
5358 5355 5352 5349 5346 5343 5340 5337 5335 5332 5329 5327 5324 5321 5318 5315 5312 5308 5305 5302 5299 5295 5292 5289 5288 5286 5285 5284 5282 5282 5281 5280 5279 5279 5279 5279 5278 5278 5278 5278 5277 5277 5277 5278 5278 5278 5279 5279 5279 5278 5278 5278 5278 5279 5279 5280 5281 5283 5286 5288 5291 5294 5297 5300 5303 5307 5310 5313 5317
5352 5350 5346 5344 5341 5338 5335 5332 5329 5326 5323 5320 5317 5314 5311 5308 5305 5302 5298 5295 5292 5289 5286 5284 5282 5281 5280 5279 5279 5278 5278 5278 5276 5276 5276 5276 5275 5276 5275 5275 5274 5275 5275 5275 5275 5275 5275 5275 5275 5275 5274 5274 5274 5275 5276 5277 5278 5279 5281 5283 5286 5289 5292 5295 5298 5301 5304 5308 5312
5347 5344 5341 5338 5335 5332 5329 5326 5323 5320 5317 5314 5311 5307 5304 5302 5298 5295 5292 5289 5286 5283 5281 5279 5278 5276 5276 5276 5275 5275 5275 5275 5275 5274 5274 5273 5273 5273 5273 5272 5272 5272 5273 5273 5273 5272 5272 5272 5272 5272 5271 5271 5271 5272 5273 5273 5274 5276 5278 5280 5282 5284 5287 5290 5293 5296 5299 5303 5307
5342 5339 5336 5333 5330 5326 5323 5320 5317 5314 5311 5308 5304 5301 5299 5295 5293 5289 5287 5284 5281 5279 5277 5275 5275 5274 5273 5273 5272 5272 5272 5273 5273 5273 5272 5271 5271 5271 5271 5270 5270 5270 5271 5271 5271 5270 5270 5270 5270 5269 5269 5269 5270 5270 5271 5271 5272 5273 5274 5277 5279 5281 5283 5286 5288 5291 5294 5298 5302
5336 5333 5330 5328 5324 5321 5318 5315 5312 5309 5306 5302 5299 5296 5292 5289 5287 5284 5282 5279 5278 5275 5274 5272 5272 5271 5271 5270 5269 5269 5270 5269 5271 5272 5272 5271 5270 5270 5269 5269 5269 5270 5270 5270 5270 5269 5268 5268 5268 5268 5269 5269 5269 5269 5270 5270 5271 5272 5273 5274 5276 5277 5280 5281 5284 5287 5290 5293 5297
5331 5328 5325 5322 5319 5316 5313 5309 5306 5303 5299 5297 5293 5290 5287 5284 5282 5279 5277 5276 5274 5273 5271 5270 5270 5269 5269 5268 5268 5268 5268 5268 5269 5270 5271 5271 5270 5269 5268 5268 5269 5269 5269 5270 5269 5269 5268 5267 5267 5267 5267 5268 5268 5269 5270 5270 5271 5271 5272 5273 5274 5275 5277 5279 5281 5283 5286 5289 5292
5326 5323 5320 5317 5315 5311 5307 5304 5300 5297 5294 5291 5288 5284 5282 5279 5277 5275 5274 5272 5271 5271 5270 5268 5268 5267 5267 5267 5267 5268 5267 5267 5268 5268 5269 5269 5270 5269 5268 5268 5268 5268 5268 5269 5268 5268 5267 5267 5266 5266 5266 5266 5267 5267 5269 5269 5270 5270 5271 5271 5272 5273 5275 5276 5278 5281 5282 5285 5287
5321 5318 5316 5313 5309 5306 5302 5299 5295 5292 5289 5285 5283 5280 5278 5275 5273 5271 5270 5269 5269 5268 5267 5267 5266 5266 5266 5266 5266 5267 5267 5266 5267 5267 5268 5268 5268 5268 5268 5267 5267 5267 5267 5268 5268 5268 5267 5267 5266 5266 5264 5265 5265 5266 5268 5268 5269 5269 5270 5270 5271 5272 5274 5275 5276 5278 5280 5281 5283
5316 5313 5311 5307 5304 5301 5298 5294 5290 5286 5284 5281 5278 5275 5274 5272 5269 5268 5267 5267 5266 5266 5265 5265 5265 5264 5265 5265 5266 5266 5266 5266 5265 5266 5266 5267 5267 5267 5267 5267 5267 5268 5268 5268 5268 5268 5268 5268 5267 5267 5266 5265 5265 5266 5266 5267 5269 5269 5269 5269 5271 5271 5273 5273 5274 5276 5277 5278 5279
5311 5308 5305 5302 5299 5296 5293 5289 5285 5282 5278 5275 5273 5271 5269 5268 5267 5266 5265 5265 5264 5264 5264 5263 5263 5263 5263 5264 5264 5265 5265 5265 5265 5265 5265 5266 5266 5267 5267 5267 5268 5268 5269 5269 5269 5269 5269 5269 5269 5268 5267 5266 5265 5265 5266 5268 5269 5269 5269 5270 5270 5271 5271 5272 5274 5274 5275 5275 5276
5306 5302 5300 5297 5294 5291 5288 5284 5280 5277 5274 5271 5269 5267 5266 5265 5264 5264 5263 5262 5262 5262 5262 5261 5261 5262 5262 5262 5263 5263 5264 5264 5264 5264 5265 5266 5266 5268 5267 5268 5268 5269 5270 5271 5270 5271 5271 5270 5270 5270 5269 5267 5266 5265 5267 5268 5269 5269 5270 5270 5270 5271 5271 5271 5272 5273 5273 5274 5274
5300 5297 5294 5291 5288 5285 5283 5279 5276 5273 5270 5268 5266 5264 5263 5262 5262 5262 5261 5260 5261 5261 5261 5260 5260 5260 5261 5262 5262 5262 5264 5264 5264 5264 5265 5265 5266 5268 5268 5269 5270 5271 5272 5272 5272 5273 5273 5272 5272 5272 5271 5269 5268 5267 5267 5268 5269 5270 5270 5270 5271 5271 5270 5270 5271 5272 5273 5273 5273
5295 5292 5289 5286 5283 5280 5277 5275 5272 5268 5266 5264 5263 5261 5260 5260 5261 5260 5259 5258 5259 5259 5259 5260 5260 5260 5261 5262 5262 5262 5263 5264 5264 5265 5265 5266 5266 5268 5270 5271 5271 5272 5273 5274 5274 5274 5275 5275 5274 5273 5272 5271 5269 5268 5268 5269 5270 5270 5271 5271 5271 5271 5270 5271 5270 5271 5272 5272 5272
5290 5287 5284 5281 5278 5276 5273 5270 5267 5265 5263 5261 5260 5259 5259 5258 5259 5258 5258 5258 5257 5257 5258 5259 5259 5260 5261 5261 5262 5263 5263 5264 5265 5266 5266 5267 5267 5269 5270 5272 5273 5274 5275 5275 5276 5276 5276 5275 5275 5275 5274 5273 5271 5270 5270 5270 5271 5271 5272 5272 5273 5272 5271 5271 5270 5271 5271 5270 5271
5285 5282 5279 5277 5274 5272 5269 5266 5264 5261 5260 5259 5259 5258 5257 5256 5256 5257 5257 5256 5256 5257 5257 5258 5258 5259 5259 5260 5261 5262 5264 5265 5265 5266 5267 5268 5269 5270 5271 5273 5275 5276 5277 5277 5277 5277 5277 5277 5277 5276 5276 5275 5274 5272 5272 5272 5272 5273 5274 5274 5274 5274 5273 5272 5272 5271 5271 5270 5270
5281 5277 5275 5272 5270 5267 5265 5262 5260 5259 5258 5257 5257 5256 5256 5255 5255 5254 5255 5255 5256 5256 5257 5258 5258 5259 5259 5261 5261 5262 5263 5265 5266 5267 5268 5269 5270 5271 5273 5275 5276 5277 5278 5278 5278 5278 5278 5278 5279 5278 5278 5277 5276 5276 5274 5275 5275 5276 5277 5277 5276 5277 5275 5275 5273 5273 5272 5271 5269
5276 5272 5269 5267 5265 5263 5261 5259 5257 5256 5255 5255 5254 5254 5254 5254 5254 5254 5254 5254 5255 5256 5257 5259 5259 5259 5260 5261 5262 5263 5264 5265 5267 5268 5269 5270 5271 5272 5274 5276 5278 5279 5280 5280 5280 5280 5280 5280 5280 5280 5280 5280 5279 5279 5278 5279 5279 5280 5280 5280 5280 5279 5279 5277 5275 5274 5273 5271 5270
5271 5268 5264 5263 5260 5259 5257 5255 5255 5253 5253 5253 5253 5253 5252 5253 5253 5253 5253 5253 5254 5256 5258 5258 5259 5260 5261 5262 5263 5264 5265 5266 5267 5268 5271 5272 5272 5273 5275 5278 5280 5281 5282 5282 5282 5281 5282 5282 5283 5283 5283 5282 5282 5283 5283 5283 5283 5284 5284 5284 5283 5283 5281 5279 5278 5276 5275 5274 5272
5267 5264 5260 5258 5256 5255 5254 5253 5251 5251 5251 5251 5251 5252 5252 5251 5252 5252 5252 5252 5253 5255 5257 5259 5259 5260 5261 5262 5263 5265 5266 5267 5268 5269 5271 5272 5274 5274 5276 5278 5280 5283 5284 5285 5284 5284 5284 5284 5285 5286 5286 5286 5285 5285 5286 5286 5287 5287 5287 5287 5287 5286 5284 5282 5281 5279 5278 5277 5275
5263 5260 5257 5254 5253 5251 5250 5250 5249 5249 5249 5250 5250 5250 5250 5250 5251 5251 5252 5252 5253 5253 5255 5257 5259 5261 5262 5262 5263 5266 5268 5269 5269 5270 5271 5273 5275 5276 5277 5278 5281 5284 5286 5286 5286 5287 5287 5288 5289 5289 5290 5290 5289 5290 5290 5290 5290 5291 5291 5290 5290 5289 5287 5285 5283 5282 5281 5279 5277
5260 5256 5253 5251 5249 5248 5248 5248 5247 5247 5247 5247 5248 5249 5249 5250 5250 5251 5251 5252 5252 5253 5254 5256 5259 5260 5261 5262 5264 5266 5268 5270 5271 5272 5272 5274 5276 5277 5278 5279 5282 5285 5288 5288 5289 5289 5290 5291 5291 5292 5293 5293 5293 5293 5294 5294 5295 5295 5295 5294 5292 5291 5289 5288 5286 5285 5284 5282 5280
5256 5253 5250 5248 5247 5246 5245 5245 5246 5246 5246 5246 5246 5247 5248 5249 5249 5250 5251 5252 5252 5253 5254 5257 5259 5260 5261 5262 5263 5265 5268 5271 5273 5274 5274 5275 5276 5278 5280 5281 5283 5286 5289 5290 5291 5292 5293 5294 5295 5295 5296 5296 5296 5297 5298 5299 5299 5299 5299 5298 5296 5294 5292 5291 5289 5287 5287 5285 5283